Guymon, OK

6:44 AM CST on November 18, 2017 (GMT -0600)
Guymon Municipal

Weather History for KGUY - November, 2012

Change the Weather History Date:

Tuesday, November 27, 2012

  Actual Average Record
Temperature  
Mean Temperature 38 °F 40 °F  
Max Temperature 59 °F 55 °F 67 °F (2016)
Min Temperature 17 °F 26 °F 12 °F (2002)
Degree Days  
Heating Degree Days 27 25  
Month to date heating degree days 371 506  
Since 1 July heating degree days 679 815  
Cooling Degree Days 0 0  
Month to date cooling degree days 0 0  
Year to date cooling degree days 1917 1481  
Moisture  
Dew Point 20 °F    
Average Humidity 56    
Maximum Humidity 84    
Minimum Humidity 28    
Precipitation  
Precipitation 0.00 in 0.01 in 0.16 in (2015)
Month to date precipitation T 0.49  
Year to date precipitation 10.79 18.62  
Snow  
Snow 0.00 in - - ()
Month to date snowfall 0.0  
Since 1 July snowfall 0.0  
Since 1 September snowfall 0.0  
Snow Depth 0.00 in    
Sea Level Pressure  
Sea Level Pressure 30.28 in    
Wind  
Wind Speed 9 mph (SSW)    
Max Wind Speed 24 mph    
Max Gust Speed 29 mph    
Visibility 10 miles    
Events      
T = Trace of Precipitation, MM = Missing Value Source: NWS Daily Summary

Daily Weather History Graph

Daily Weather History Graph

Search for Another Location

Airport or City:

Trip Planner

Search our weather history database for the weather conditions in past years. The results will help you decide how hot, cold, wet, or windy it might be!

Date:

Astronomy

Nov. 27, 2012 Rise Set
Actual Time 7:36 AM CST 5:30 PM CST
Civil Twilight 7:08 AM CST 5:59 PM CST
Nautical Twilight 6:36 AM CST 6:31 PM CST
Astronomical Twilight 6:05 AM CST 7:02 PM CST
Moon 5:03 PM CST (11/27) 6:43 AM CST (11/27)
Length of Visible Light 10h 50m
Length of Day
9h 54m
Waxing Gibbous, 99% of the Moon is Illuminated
Nov 27
Waxing Gibbous
Nov 28
Full
Dec 6
Last Quarter
Dec 13
New
Dec 19
First Quarter

Hourly Weather History & Observations

Time (CST) Temp. Windchill Dew Point Humidity Pressure Visibility Wind Dir Wind Speed Gust Speed Precip Events Conditions
12:53 AM 21.0 °F 16.2 °F 15.1 °F 78% 30.46 in 10.0 mi SW 3.5 mph - N/A   Clear
1:53 AM 24.1 °F 18.2 °F 17.1 °F 75% 30.45 in 10.0 mi WSW 4.6 mph - N/A   Clear
2:53 AM 19.0 °F 10.0 °F 14.0 °F 81% 30.45 in 10.0 mi SW 6.9 mph - N/A   Clear
3:53 AM 19.0 °F 11.1 °F 14.0 °F 81% 30.41 in 10.0 mi SSW 5.8 mph - N/A   Clear
4:53 AM 19.0 °F 10.0 °F 14.0 °F 81% 30.39 in 10.0 mi SSW 6.9 mph - N/A   Clear
5:53 AM 21.9 °F 13.4 °F 17.1 °F 82% 30.38 in 10.0 mi SSW 6.9 mph - N/A   Clear
6:53 AM 21.9 °F 13.4 °F 17.1 °F 82% 30.38 in 10.0 mi South 6.9 mph - N/A   Clear
7:53 AM 25.0 °F 14.8 °F 19.0 °F 78% 30.36 in 10.0 mi South 10.4 mph - N/A   Clear
8:53 AM 30.0 °F 20.0 °F 21.0 °F 69% 30.36 in 10.0 mi SSW 12.7 mph - N/A   Clear
9:53 AM 37.9 °F 27.6 °F 21.9 °F 53% 30.31 in 10.0 mi SSW 20.7 mph 26.5 mph N/A   Clear
10:53 AM 44.1 °F 36.2 °F 25.0 °F 47% 30.31 in 10.0 mi SW 18.4 mph - N/A   Clear
11:53 AM 50.0 °F - 28.0 °F 43% 30.25 in 10.0 mi SW 15.0 mph - N/A   Clear
12:53 PM 53.1 °F - 27.0 °F 37% 30.22 in 10.0 mi SW 12.7 mph - N/A   Clear
2:53 PM 59.0 °F - 26.1 °F 28% 30.14 in 10.0 mi SSW 15.0 mph - N/A   Clear
3:53 PM 57.9 °F - 25.0 °F 28% 30.14 in 10.0 mi SSW 13.8 mph - N/A   Clear
4:53 PM 55.9 °F - 25.0 °F 30% 30.15 in 10.0 mi South 9.2 mph - N/A   Clear
5:53 PM 48.9 °F - 24.1 °F 38% 30.16 in 10.0 mi South 9.2 mph - N/A   Clear
6:53 PM 41.0 °F 37.1 °F 21.9 °F 47% 30.19 in 10.0 mi SSW 5.8 mph - N/A   Clear
7:53 PM 37.0 °F 31.6 °F 21.0 °F 52% 30.20 in 10.0 mi South 6.9 mph - N/A   Clear
8:53 PM 35.1 °F 32.2 °F 21.0 °F 57% 30.20 in 10.0 mi SSW 3.5 mph - N/A   Clear
9:53 PM 33.1 °F 27.7 °F 19.9 °F 59% 30.18 in 10.0 mi WSW 5.8 mph - N/A   Clear
10:53 PM 33.1 °F 30.0 °F 19.9 °F 59% 30.18 in 10.0 mi West 3.5 mph - N/A   Clear
11:53 PM 25.0 °F 17.1 °F 16.0 °F 69% 30.18 in 10.0 mi SW 6.9 mph - N/A   Clear